Location: Poughquag
(41.6090°N, 73.6820°W)
Time: 10:09:01
(UTC-04:00)

Vanguard 2 - Visible Passes

Search period start: 14 October 2019 00:00
Search period end: 24 October 2019 00:00
Orbit: 554 x 2937 km, 32.9° (Epoch: 13 October)

Date Brightness Start Highest point End Pass type
(mag) Time Alt. Az. Time Alt. Az. Time Alt. Az.
14 Oct11.801:49:32SE01:49:32SE01:13:41Wvisible
14 Oct 11.2 03:50:59 16° S 03:50:59 16° S 03:53:54 10° S visible
14 Oct 10.3 19:07:49 10° SSW 19:16:36 32° SE 19:26:11 16° E visible
14 Oct 10.0 21:14:16 10° WSW 21:26:15 57° SSE 21:27:35 56° SSE visible
14 Oct 10.9 23:23:15 10° W 23:28:58 31° WSW 23:28:58 31° WSW visible
15 Oct11.802:06:52SE02:06:52SE01:30:21Wvisible
15 Oct 11.4 04:08:19 12° S 04:08:19 12° S 04:09:33 10° S visible
15 Oct 10.1 19:24:52 10° SSW 19:34:04 39° SSE 19:42:49 21° E visible
15 Oct 9.9 21:32:00 10° WSW 21:44:10 60° S 21:44:12 60° S visible
15 Oct 11.1 23:41:14 10° W 23:45:36 25° WSW 23:45:36 25° WSW visible
16 Oct 10.0 19:42:11 10° SW 19:51:39 45° SSE 19:59:25 27° ESE visible
16 Oct 10.0 21:49:48 10° WSW 22:00:48 60° SSW 22:00:48 60° SSW visible
16 Oct 11.3 23:59:16 10° W 00:02:11 19° W 00:02:11 19° W visible
17 Oct 9.9 19:59:40 10° SW 20:09:21 51° SSE 20:15:59 33° ESE visible
17 Oct 10.1 22:07:39 10° WSW 22:17:22 55° SW 22:17:22 55° SW visible
18 Oct 11.5 00:17:23 10° W 00:18:45 14° W 00:18:45 14° W visible
18 Oct 9.8 20:17:18 10° WSW 20:27:10 55° SSE 20:32:32 39° ESE visible
18 Oct 10.3 22:25:34 10° W 22:33:55 47° SW 22:33:55 47° SW visible
19 Oct 9.9 18:28:19 10° SW 18:35:42 36° SSE 18:47:07 10° E visible
19 Oct 9.8 20:35:01 10° WSW 20:45:03 58° S 20:49:05 46° SE visible
19 Oct 10.5 22:43:32 10° W 22:50:28 39° WSW 22:50:28 39° WSW visible
20 Oct 9.7 18:45:40 10° SW 18:53:17 43° SSE 19:04:15 13° E visible
20 Oct 9.8 20:52:49 10° WSW 21:02:59 58° S 21:05:38 52° SE visible
20 Oct 10.8 23:01:34 10° W 23:07:01 31° WSW 23:07:01 31° WSW visible
21 Oct 9.6 19:03:11 10° SW 19:10:59 48° SSE 19:20:49 17° E visible
21 Oct 9.8 21:10:40 10° WSW 21:20:56 57° S 21:22:11 55° SSE visible
21 Oct 11.0 23:19:41 10° W 23:23:35 23° WSW 23:23:35 23° WSW visible
22 Oct 9.6 19:20:50 10° WSW 19:28:46 52° SSE 19:37:24 22° ESE visible
22 Oct 9.9 21:28:33 10° W 21:38:47 54° S 21:38:47 54° S visible
22 Oct 11.3 23:37:57 10° W 23:40:10 17° W 23:40:10 17° W visible
23 Oct 9.5 19:38:34 10° WSW 19:46:39 54° S 19:54:00 27° ESE visible
23 Oct 10.0 21:46:31 10° W 21:55:23 47° SSW 21:55:23 47° SSW visible
